Home > Weather > Thane > Past weeks

Flag for India Past Weather in Thane, Maharashtra, India — Yesterday and Last 2 Weeks

Now
82 °F

Partly cloudy.


Feels Like: 91 °F
Forecast: 78 / 84 °F
Wind: 6 mph from West

Location: Mumbai / Santacruz

Current Time: Aug 24, 2016 at 9:52:30 PM

Latest Report: Aug 24, 2016 at 9:00 PM


Visibility: 2 mi

Pressure: 29.71 "Hg

Humidity: 84%

Dew Point: 77 °F

Location of ThaneLocation

Past Weather in Thane — Graph

°F

Thane Temperature Yesterday

Maximum temperature yesterday: 84 °F (at 3:30 PM)
Minimum temperature yesterday: 77 °F (at 3:00 AM)
Average temperature yesterday: 81 °F

High & Low Weather Summary for the Past Weeks

 TemperatureHumidityPressure
High86 °F (Aug 10, 11:30 AM)94% (Aug 9, 9:00 PM)29.80 "Hg (Aug 9, 9:00 PM)
Low77 °F (Aug 23, 3:00 AM)62% (Aug 22, 4:00 PM)29.62 "Hg (Aug 17, 4:30 PM)
Average83 °F82%29.71 "Hg
* Reported Aug 9 8:30 PM — Aug 24 8:30 PM, Thane, Weather by CustomWeather, © 2016

Note: Actual official high and low records may vary slightly from our data, if they occured in-between our weather recording intervals... More about our weather records

Advertising

Thane Weather History for the Previous 24 Hours

Scroll right to see more
 ConditionsComfort  
Time TempWeatherWind HumidityBarometerVisibility
8:30 PM
Wed, Aug 24
82 °FPartly cloudy.7 mph84%29.71 "Hg2 mi
8:00 PM82 °FPartly cloudy.9 mph84%29.68 "Hg2 mi
7:30 PM82 °FPartly cloudy.8 mph84%29.68 "Hg2 mi
7:00 PM82 °FBroken clouds.8 mph79%29.68 "Hg2 mi
6:30 PM82 °FBroken clouds.12 mph84%29.68 "Hg2 mi
6:00 PM84 °FBroken clouds.10 mph79%29.65 "Hg2 mi
5:30 PM84 °FBroken clouds.13 mph79%29.65 "Hg1 mi
5:00 PM82 °FBroken clouds.7 mph79%29.65 "Hg1 mi
4:30 PM82 °FMore clouds than sun.16 mph84%29.65 "Hg1 mi
4:00 PM82 °FMore clouds than sun.14 mph89%29.65 "Hg1 mi
3:30 PM82 °FLight rain. More clouds than sun.14 mph84%29.65 "Hg1 mi
3:00 PM84 °FBroken clouds.16 mph79%29.65 "Hg2 mi
2:30 PM86 °FScattered showers. Broken clouds.16 mph75%29.68 "Hg2 mi
2:00 PM86 °FBroken clouds.18 mph75%29.68 "Hg2 mi
1:30 PM86 °FBroken clouds.10 mph75%29.68 "Hg2 mi
1:00 PM86 °FBroken clouds.10 mph75%29.68 "Hg2 mi
12:30 PM84 °FBroken clouds.9 mph79%29.71 "Hg2 mi
12:00 PM84 °FBroken clouds.13 mph79%29.71 "Hg2 mi
11:30 AM84 °FBroken clouds.13 mph79%29.71 "Hg2 mi
11:00 AM84 °FBroken clouds.12 mph79%29.74 "Hg2 mi
10:30 AM84 °FBroken clouds.10 mph84%29.74 "Hg1 mi
10:00 AM82 °FBroken clouds.8 mph89%29.74 "Hg1 mi
9:30 AM82 °FBroken clouds.10 mph84%29.74 "Hg1 mi
9:00 AM81 °FBroken clouds.12 mph89%29.71 "Hg1 mi
8:30 AM81 °FScattered showers. Broken clouds.9 mph89%29.71 "Hg1 mi
8:00 AM79 °FLight rain. Broken clouds.8 mph94%29.71 "Hg1 mi
7:30 AM82 °FBroken clouds.12 mph84%29.71 "Hg2 mi
7:00 AM82 °FBroken clouds.9 mph79%29.68 "Hg2 mi
6:30 AM81 °FPartly cloudy.10 mph84%29.68 "Hg2 mi
6:00 AM81 °FPartly cloudy.9 mph84%29.68 "Hg2 mi
5:30 AM81 °FPartly cloudy.12 mph84%29.65 "Hg1 mi
5:00 AM81 °FPartly cloudy.12 mph89%29.65 "Hg1 mi
4:30 AM81 °FPartly cloudy.10 mph89%29.65 "Hg1 mi
4:00 AM81 °FPartly cloudy.9 mph94%29.65 "Hg1 mi
3:30 AM81 °FPartly cloudy.12 mph94%29.65 "Hg1 mi
3:00 AM82 °FPartly cloudy.12 mph89%29.65 "Hg1 mi
2:30 AM81 °FPartly cloudy.10 mph94%29.68 "Hg1 mi
2:00 AM81 °FPartly cloudy.10 mph94%29.68 "Hg1 mi
1:30 AM81 °FLight rain. Partly cloudy.10 mph94%29.68 "Hg1 mi
1:00 AM81 °FPartly cloudy.9 mph94%29.68 "Hg2 mi
12:30 AM81 °FPartly cloudy.9 mph89%29.71 "Hg2 mi
12:00 AM79 °FPartly cloudy.12 mph94%29.71 "Hg2 mi
11:30 PM
Tue, Aug 23
81 °FLight rain. Partly cloudy.N/A94%29.71 "Hg1 mi
11:00 PM81 °FLight rain. Partly cloudy.No wind94%29.71 "Hg1 mi
10:30 PM81 °FPartly cloudy.7 mph89%29.71 "Hg1 mi
10:00 PM79 °FLight rain. Partly cloudy.14 mph94%29.71 "Hg1 mi
9:30 PM81 °FPartly cloudy.13 mph89%29.71 "Hg2 mi
9:00 PM81 °FPartly cloudy.5 mph89%29.71 "Hg2 mi
Weather by CustomWeather, © 2016

See weather overviewHow to use our weather pages